Wetbulb
44.61 43.53 41.82 38.83 36.32 38.61 33.60 31.08 33.39 35.38 39.99 45.18 51.69 53.77 57.67 60.19 62.50 63.80 64.24 64.90 66.18 65.22 65.38 66.20 66.67 66.76 68.12 68.56 68.43 68.63 69.12 69.15
42.65 43.43 42.93 39.17 40.07 35.03 34.28 29.03 28.12 33.44 35.19 37.98 46.50 49.33 56.85 57.15 60.64 63.03 64.54 63.95 65.03 65.84 65.32 66.46 66.90 67.46 68.43 69.11 68.66 68.90 69.16 69.40
38.29 36.69 35.77 36.09 33.71 32.25 32.96 32.56 29.52 29.47 34.10 45.80 47.49 49.37 50.71 55.70 59.02 60.72 62.36 63.68 64.54 65.93 66.01 66.56 67.30 67.20 67.50 68.82 68.76 68.80 68.91 69.23
32.71 38.89 41.07 38.06 33.65 30.42 28.15 28.53 30.65 32.06 35.18 45.94 46.48 50.54 56.77 58.77 60.47 61.06 63.11 64.02 65.31 65.77 65.65 65.78 66.34 66.95 66.71 67.88 68.94 69.00 69.24 69.06
28.23 33.39 36.55 34.59 35.72 32.39 29.95 28.15 27.45 28.52 32.77 46.53 48.58 56.09 57.27 57.73 59.87 61.73 62.84 62.62 62.97 64.47 64.84 65.43 65.52 66.36 66.72 67.14 68.18 69.41 69.68 69.31
27.88 28.07 32.43 32.30 35.87 35.96 30.80 27.22 28.61 29.46 32.78 42.77 49.25 54.15 55.09 55.79 57.84 59.49 60.85 62.44 63.47 63.85 64.13 64.18 65.61 65.74 65.37 67.65 68.40 68.46 69.56 69.78
31.61 36.75 36.43 35.60 36.22 37.14 32.83 32.38 29.61 33.40 33.68 41.61 45.24 51.26 53.00 53.87 55.97 58.02 59.11 59.85 60.38 60.68 62.00 64.31 65.20 65.08 65.19 66.13 68.76 69.28 68.70 69.20
31.56 36.61 36.47 33.99 36.78 37.53 37.69 37.30 36.13 37.82 35.14 44.07 46.96 51.43 51.06 51.87 53.35 54.87 56.08 57.24 58.66 60.69 61.68 62.49 63.50 65.84 66.51 67.13 67.10 69.78 69.34 68.92
24.58 33.00 33.21 28.66 34.40 35.71 38.62 41.22 39.39 34.17 38.99 44.53 44.27 47.33 47.56 50.18 51.61 53.02 55.28 56.23 57.16 58.39 60.75 62.15 63.39 65.97 66.50 67.58 67.71 68.18 69.72 69.74
25.17 28.10 21.01 31.49 37.64 40.12 40.61 41.06 41.80 41.01 42.00 43.81 44.31 45.66 47.25 47.20 47.58 51.84 54.90 55.62 56.71 58.08 59.13 61.18 63.58 64.84 65.62 67.83 68.06 68.35 68.95 70.23
25.19 24.23 28.97 34.56 37.60 37.06 35.59 37.12 42.13 40.37 42.05 42.87 44.07 46.10 46.72 47.02 47.80 48.79 53.03 55.87 56.79 57.89 59.11 61.16 62.39 62.36 65.19 68.50 67.54 65.15 66.71 67.89
26.91 22.91 23.06 31.10 39.93 42.97 40.72 32.41 41.79 41.85 40.96 40.77 42.16 37.93 44.21 45.12 46.54 47.57 49.64 54.28 57.17 57.18 58.69 59.31 59.37 60.44 63.00 64.51 64.51 64.37 66.26 67.90
26.07 23.86 29.90 38.48 39.78 42.56 29.78 30.51 40.19 41.26 40.29 39.59 37.33 40.29 42.73 45.29 45.43 46.94 48.60 51.13 56.83 57.36 57.33 57.45 59.55 59.86 60.26 61.46 60.54 62.13 64.43 64.60
30.82 26.23 23.72 40.09 39.00 34.55 37.45 37.45 39.08 39.95 39.88 39.63 40.46 41.63 42.83 44.34 44.20 46.18 47.25 49.39 55.08 55.91 57.28 57.25 58.66 58.16 57.91 58.07 59.92 61.58 62.43 63.66
31.59 30.28 37.87 38.93 37.02 39.31 39.82 38.08 37.93 38.27 39.63 40.28 41.27 41.47 42.38 43.01 44.02 47.06 48.01 48.78 52.62 55.34 56.45 56.99 57.48 57.41 55.91 57.17 57.69 58.58 60.21 61.26
29.88 32.28 34.86 38.35 39.48 39.77 39.51 39.53 41.02 41.30 41.19 41.89 40.84 41.46 41.40 44.17 45.98 46.47 47.71 48.55 51.11 53.83 54.25 55.95 56.01 56.46 55.63 56.33 55.62 55.74 57.43 59.73
28.99 32.74 34.64 38.08 39.59 39.43 40.51 41.88 41.72 42.39 42.51 42.34 41.88 40.94 42.11 43.46 44.18 45.90 47.20 48.96 50.79 52.19 55.06 55.72 54.17 54.88 54.86 54.62 54.10 53.31 54.25 57.85
26.95 32.82 33.32 34.12 38.35 40.63 40.94 41.28 41.65 42.77 42.59 43.85 43.92 43.13 44.54 44.13 45.38 45.92 46.70 49.27 51.20 53.46 54.39 52.75 50.04 50.58 51.55 51.20 51.42 51.89 52.69 54.85
34.31 36.14 37.22 38.30 39.99 41.34 41.81 43.09 43.29 43.20 43.62 42.90 43.86 44.28 44.73 45.18 46.81 49.03 49.16 49.79 52.89 53.98 52.23 50.92 47.74 47.98 48.95 48.88 49.82 49.96 51.15 53.36
MSLP
1009.21 1008.89 1008.99 1009.31 1010.05 1010.61 1012.17 1013.17 1012.63 1011.71 1010.04 1008.95 1007.93 1007.04 1006.27 1006.15 1006.81 1006.86 1007.26 1007.46 1007.70 1008.18 1008.85 1009.71 1010.52 1011.22 1011.89 1012.83 1013.63 1014.32 1014.86 1015.45
1010.51 1009.90 1010.09 1010.55 1011.45 1012.05 1012.91 1014.15 1014.14 1012.97 1011.53 1010.88 1009.72 1008.95 1007.67 1007.21 1007.02 1007.19 1007.55 1007.71 1008.03 1008.07 1008.61 1008.99 1009.57 1010.22 1010.94 1011.64 1012.53 1012.97 1013.99 1014.77
1012.18 1012.95 1012.88 1012.75 1013.82 1014.31 1014.74 1014.89 1014.95 1014.25 1013.27 1011.86 1011.39 1010.39 1009.68 1008.88 1007.82 1007.05 1006.90 1007.36 1007.87 1007.94 1008.11 1008.62 1008.86 1009.64 1010.39 1011.26 1011.88 1012.74 1013.47 1014.05
1015.30 1015.00 1014.50 1014.93 1016.00 1016.21 1016.65 1016.85 1016.04 1014.99 1014.67 1012.98 1012.30 1011.36 1010.53 1009.81 1008.53 1006.96 1006.36 1007.20 1007.95 1008.31 1008.67 1009.14 1009.72 1010.08 1010.39 1010.84 1011.69 1012.23 1012.87 1013.60
1016.91 1016.38 1015.99 1016.67 1017.24 1017.15 1017.68 1017.74 1017.71 1016.87 1015.59 1013.74 1013.18 1012.46 1011.63 1010.71 1009.84 1008.63 1008.35 1008.69 1008.94 1009.39 1010.02 1010.21 1010.46 1010.68 1011.03 1011.52 1011.87 1011.87 1012.24 1013.12
1018.59 1018.61 1018.45 1018.35 1018.24 1018.07 1018.28 1018.73 1018.52 1017.36 1016.91 1015.59 1014.88 1014.15 1013.35 1012.73 1011.97 1011.31 1010.81 1010.69 1010.74 1010.87 1010.90 1010.93 1010.78 1010.66 1011.01 1011.34 1011.74 1012.16 1012.52 1012.91
1019.58 1019.19 1018.85 1018.84 1018.73 1018.75 1018.87 1018.69 1018.60 1017.73 1017.93 1017.36 1016.84 1016.01 1015.51 1014.77 1013.88 1013.13 1012.71 1012.35 1012.57 1012.45 1011.98 1011.65 1011.11 1010.68 1010.59 1010.55 1010.97 1011.56 1012.07 1012.33
1020.44 1019.68 1019.30 1018.98 1018.63 1018.51 1018.65 1018.44 1018.42 1018.29 1018.47 1018.44 1017.77 1017.10 1016.55 1016.02 1015.59 1015.00 1014.52 1014.12 1013.65 1013.41 1012.61 1012.27 1011.71 1011.31 1011.01 1010.59 1010.39 1010.88 1011.29 1011.59
1021.77 1020.58 1019.60 1019.43 1019.14 1018.96 1019.17 1019.11 1018.91 1018.92 1019.07 1019.11 1018.63 1018.32 1018.07 1017.40 1016.76 1016.31 1015.71 1015.18 1014.50 1013.99 1013.53 1013.41 1012.66 1012.08 1011.43 1010.81 1010.51 1010.21 1010.35 1010.83
1023.07 1022.05 1021.10 1019.67 1019.01 1018.90 1019.40 1019.88 1019.85 1019.73 1019.73 1019.82 1019.45 1019.21 1019.02 1018.51 1018.08 1017.20 1016.51 1015.98 1015.25 1014.55 1014.33 1013.88 1012.69 1012.20 1010.80 1010.67 1010.05 1010.01 1009.74 1009.71
1023.79 1023.24 1021.71 1020.03 1019.54 1019.92 1020.30 1020.72 1020.65 1020.56 1020.38 1020.31 1019.91 1019.18 1019.08 1018.86 1018.61 1018.13 1017.26 1016.37 1015.69 1014.88 1014.04 1013.40 1012.79 1012.31 1011.70 1010.87 1010.48 1010.56 1009.96 1009.89
1024.33 1023.93 1022.65 1020.82 1020.37 1020.39 1020.41 1021.21 1021.29 1021.35 1021.21 1021.06 1020.60 1020.45 1019.40 1018.92 1018.82 1018.37 1017.62 1016.60 1015.63 1014.94 1014.30 1013.39 1013.04 1013.07 1012.09 1011.52 1011.07 1011.22 1010.79 1010.34
1024.37 1023.86 1022.23 1021.29 1020.97 1020.55 1021.51 1022.33 1022.11 1022.26 1022.10 1021.85 1021.92 1021.45 1020.52 1020.00 1019.18 1018.61 1018.02 1016.86 1015.49 1014.88 1014.42 1013.95 1013.29 1012.91 1012.47 1012.18 1011.60 1011.71 1011.27 1010.88
1024.62 1024.02 1022.85 1021.75 1021.51 1021.77 1022.16 1022.09 1022.53 1022.69 1022.45 1022.09 1021.91 1021.73 1020.59 1019.93 1019.62 1018.73 1017.83 1016.77 1015.79 1015.16 1014.52 1013.84 1013.50 1012.85 1012.47 1011.61 1012.14 1012.14 1011.83 1011.32
1024.27 1023.05 1022.15 1021.87 1021.89 1022.06 1022.25 1022.44 1022.57 1022.70 1022.33 1021.72 1021.26 1021.25 1020.83 1019.85 1019.21 1018.35 1017.58 1016.62 1015.77 1015.18 1014.71 1014.16 1013.61 1012.45 1011.78 1012.00 1012.27 1011.62 1012.01 1011.43
1024.15 1022.64 1022.26 1022.12 1022.06 1022.13 1022.37 1022.47 1022.35 1022.19 1021.82 1021.36 1020.66 1020.69 1020.37 1019.74 1018.69 1018.13 1017.30 1016.53 1015.95 1015.18 1014.39 1013.67 1013.47 1012.77 1011.95 1011.50 1011.90 1012.23 1012.63 1011.47
1023.86 1022.76 1022.44 1022.12 1022.15 1022.23 1022.24 1022.23 1022.04 1021.42 1021.07 1020.62 1020.18 1019.93 1019.86 1019.21 1018.69 1017.97 1017.14 1016.01 1015.45 1015.11 1014.53 1013.89 1013.45 1012.99 1012.43 1012.24 1012.54 1012.38 1011.31 1010.28
1022.77 1022.24 1022.30 1022.11 1021.77 1021.81 1021.88 1021.70 1021.54 1021.07 1020.52 1020.06 1019.65 1019.22 1018.88 1018.45 1017.92 1017.42 1016.61 1015.72 1014.99 1014.33 1014.27 1013.91 1013.45 1012.96 1012.75 1012.59 1012.62 1012.02 1011.15 1009.44
1021.23 1021.35 1021.55 1021.40 1021.52 1021.47 1021.40 1021.15 1021.15 1020.62 1020.13 1019.60 1019.14 1018.70 1018.13 1017.51 1016.83 1016.12 1015.50 1014.99 1014.43 1013.94 1013.83 1013.71 1013.87 1013.75 1013.25 1012.86 1012.17 1011.61 1011.02 1010.03
Wind_Speed
4 6 2 2 5 1 9 4 4 3 5 5 11 13 5 12 11 16 18 17 18 17 20 21 21 21 20 18 17 16 16 11
6 5 7 7 2 3 5 5 3 4 3 3 11 13 12 3 9 10 12 9 11 16 19 19 19 20 20 21 21 19 17 14
3 7 4 8 7 6 3 4 6 3 1 5 7 8 8 10 7 9 15 13 10 12 17 18 19 19 19 18 19 16 16 15
4 7 6 10 5 4 5 5 2 2 2 8 10 8 11 14 14 12 15 10 5 3 7 7 9 13 16 17 17 16 15 15
5 7 9 8 6 4 4 3 3 1 3 10 14 14 17 20 20 16 12 11 10 10 6 3 1 5 7 10 13 14 16 15
5 3 3 4 5 5 5 4 4 4 4 12 17 17 17 18 18 17 15 13 11 9 5 3 3 5 5 9 10 10 12 14
2 2 2 2 4 5 3 4 5 6 5 7 12 12 13 14 17 19 18 17 14 10 6 5 6 4 5 7 12 12 13 15
6 4 5 2 4 5 6 3 2 5 3 5 6 9 13 14 15 16 16 16 13 11 11 10 10 7 6 5 7 13 15 16
3 6 6 5 6 6 2 3 3 5 1 4 5 10 11 12 11 12 11 12 13 12 11 9 7 9 8 7 6 5 16 17
2 4 2 6 3 5 9 5 4 3 5 4 5 6 3 9 11 12 11 10 11 10 8 9 8 9 10 9 3 4 5 16
4 3 6 4 4 4 2 4 3 2 3 4 9 4 6 9 12 12 12 9 8 9 11 8 8 12 10 9 4 4 4 5
3 4 5 5 3 7 3 4 3 3 4 6 8 1 5 14 14 14 16 12 10 10 10 9 6 9 7 8 9 10 8 7
3 4 7 2 6 4 3 3 2 2 2 3 1 5 9 12 14 13 12 17 12 9 9 9 8 7 4 6 7 7 9 8
2 2 8 2 2 3 0 2 2 4 5 6 6 7 16 13 13 15 14 13 13 9 9 10 8 4 7 7 8 5 7 9
7 6 2 2 4 3 1 3 3 4 6 8 11 12 13 16 15 14 15 12 11 9 9 8 8 9 4 4 6 6 7 6
5 4 3 3 5 2 2 5 7 9 10 11 15 14 12 15 14 10 14 13 8 8 9 9 6 6 7 9 9 9 8 6
5 8 5 2 3 2 4 6 10 13 12 14 16 14 14 12 12 10 13 15 9 6 8 8 7 8 6 6 8 10 11 8
7 7 4 6 4 3 5 8 9 13 13 13 13 13 12 12 11 11 13 13 11 8 7 4 6 8 7 7 8 10 9 8
5 6 7 6 5 5 7 9 9 12 11 12 11 11 13 13 14 15 14 12 10 6 5 3 4 6 7 7 10 11 10 6
Wind_Direction
5 35 56 297 41 242 104 11 74 263 295 6 357 7 286 213 207 213 208 208 206 189 188 189 188 189 185 184 193 190 193 193
302 21 21 79 318 52 10 122 158 319 62 302 343 351 352 337 234 216 214 207 216 203 194 191 192 192 189 185 190 190 191 195
44 19 343 15 10 11 110 86 143 140 342 331 319 324 331 322 272 219 209 211 205 212 198 196 196 192 193 193 190 191 195 196
51 324 76 93 64 89 98 328 13 147 229 343 321 320 4 356 337 258 217 198 171 203 219 230 209 202 197 193 192 195 194 198
16 352 9 46 6 34 107 56 7 103 280 338 351 10 17 15 10 17 47 66 60 61 69 76 347 202 200 210 214 201 190 197
156 165 220 18 27 43 85 75 294 244 328 334 360 1 12 16 17 21 35 36 60 47 58 33 255 173 182 205 207 203 205 206
135 215 107 143 58 78 90 197 166 278 36 320 336 354 3 14 22 24 28 34 32 35 26 7 356 302 241 181 189 195 206 207
356 352 37 336 233 198 224 163 211 250 126 308 326 2 11 19 20 23 15 11 9 354 12 11 353 346 335 266 185 191 205 212
307 327 350 58 61 67 98 348 290 220 147 349 348 5 4 4 11 11 6 357 349 351 351 327 340 325 317 306 232 190 204 206
192 12 319 234 253 157 129 81 38 46 360 24 326 309 9 24 356 346 348 346 337 331 323 308 328 332 337 303 294 298 241 206
137 190 295 292 70 58 353 196 100 192 337 7 331 269 217 22 1 334 322 316 308 310 314 332 352 329 337 359 36 27 49 32
142 152 228 241 33 328 267 274 72 75 6 10 356 105 270 349 340 323 316 310 310 320 319 332 351 328 347 1 31 14 2 346
189 203 281 24 303 286 176 234 19 345 320 338 282 261 287 311 311 308 297 304 308 313 319 318 325 335 356 340 21 337 317 324
160 219 270 8 349 184 351 204 195 247 256 271 261 278 293 295 295 297 296 299 299 306 310 314 313 336 333 3 331 311 297 290
196 220 186 175 185 262 231 267 268 241 252 271 283 280 277 288 295 289 294 290 287 284 291 294 306 320 317 336 317 322 289 293
22 305 280 304 286 202 244 272 282 276 263 263 280 281 272 274 282 282 293 287 268 282 290 292 301 316 317 324 333 318 261 246
261 279 286 234 213 295 303 301 306 302 283 278 276 270 268 263 266 265 276 282 271 240 257 273 306 310 321 323 308 296 310 304
220 221 176 248 235 238 272 283 301 306 296 288 283 276 272 272 263 253 263 263 265 254 235 216 293 304 309 319 305 306 308 330
199 189 200 231 247 235 248 265 297 312 300 296 293 285 279 276 273 275 265 248 226 233 241 251 250 271 292 308 314 305 301 306